• In Uzbekistan
  • List of Countries
  • For 7 days
  • Water Temperature
  • Weather Map
  • Weather Widgets
  • user-avatar
    Login

    Hourly Weather Saransk

    Today, 15 September, Sunday

    Time Temperature Precipitation Wind Pressure Humidity
    00:00 +12°C° 0 mm 2 mps 746 mmHg 91%
    01:00 +11°C° 0.1 mm 3 mps 746 mmHg 90%
    02:00 +11°C° 0.1 mm 3 mps 745 mmHg 88%
    03:00 +10°C° 0 mm 3 mps 746 mmHg 85%
    04:00 +9°C° 0 mm 3 mps 746 mmHg 87%
    05:00 +8°C° 0 mm 3 mps 746 mmHg 89%
    06:00 +7°C° 0 mm 3 mps 746 mmHg 91%
    07:00 +9°C° 0 mm 3 mps 746 mmHg 84%
    08:00 +10°C° 0 mm 4 mps 746 mmHg 77%
    09:00 +12°C° 0 mm 4 mps 746 mmHg 70%
    10:00 +12°C° 0.2 mm 5 mps 746 mmHg 67%
    11:00 +13°C° 0.2 mm 5 mps 746 mmHg 63%
    12:00 +14°C° 0.2 mm 5 mps 746 mmHg 60%
    13:00 +14°C° 0.3 mm 5 mps 745 mmHg 59%
    14:00 +14°C° 0.3 mm 4 mps 745 mmHg 58%
    15:00 +14°C° 0.3 mm 4 mps 745 mmHg 57%
    16:00 +13°C° 0.2 mm 3 mps 745 mmHg 63%
    17:00 +12°C° 0.2 mm 3 mps 745 mmHg 68%
    18:00 +12°C° 0.2 mm 2 mps 745 mmHg 74%
    19:00 +10°C° 0 mm 2 mps 745 mmHg 76%
    20:00 +9°C° 0 mm 3 mps 745 mmHg 77%
    21:00 +9°C° 0 mm 3 mps 745 mmHg 79%
    22:00 +9°C° 0 mm 3 mps 744 mmHg 77%
    23:00 +8°C° 0 mm 4 mps 744 mmHg 76%

    Tomorrow, 16 September, Monday

    Time Temperature Precipitation Wind Pressure Humidity
    00:00 +8°C° 0 mm 4 mps 743 mmHg 74%
    01:00 +8°C° 0 mm 4 mps 743 mmHg 74%
    02:00 +8°C° 0 mm 5 mps 742 mmHg 73%
    03:00 +8°C° 0 mm 5 mps 742 mmHg 72%
    04:00 +8°C° 0.1 mm 6 mps 741 mmHg 76%
    05:00 +8°C° 0.1 mm 7 mps 741 mmHg 80%
    06:00 +8°C° 0.1 mm 7 mps 740 mmHg 84%
    07:00 +7°C° 0.1 mm 8 mps 740 mmHg 83%
    08:00 +9°C° 0.1 mm 8 mps 739 mmHg 82%
    09:00 +9°C° 0.1 mm 8 mps 739 mmHg 82%
    10:00 +9°C° 0.2 mm 8 mps 738 mmHg 82%
    11:00 +9°C° 0.2 mm 8 mps 737 mmHg 82%
    12:00 +9°C° 0.2 mm 8 mps 737 mmHg 83%
    13:00 +9°C° 0.4 mm 8 mps 736 mmHg 84%
    14:00 +9°C° 0.4 mm 8 mps 736 mmHg 85%
    15:00 +10°C° 0.4 mm 7 mps 736 mmHg 86%
    16:00 +10°C° 0.2 mm 7 mps 736 mmHg 85%
    17:00 +10°C° 0.2 mm 7 mps 736 mmHg 85%
    18:00 +10°C° 0.2 mm 7 mps 736 mmHg 85%
    19:00 +10°C° 0.1 mm 7 mps 736 mmHg 85%
    20:00 +9°C° 0.1 mm 6 mps 736 mmHg 85%
    21:00 +9°C° 0.1 mm 6 mps 736 mmHg 85%
    22:00 +8°C° 0 mm 6 mps 736 mmHg 87%
    23:00 +8°C° 0 mm 5 mps 736 mmHg 88%

    Day after tomorrow, 17 September, Tuesday

    Time Temperature Precipitation Wind Pressure Humidity
    00:00 +8°C° 0 mm 5 mps 735 mmHg 89%
    01:00 +8°C° 0 mm 5 mps 735 mmHg 89%
    02:00 +8°C° 0 mm 5 mps 735 mmHg 89%
    03:00 +7°C° 0 mm 5 mps 735 mmHg 89%
    04:00 +7°C° 0 mm 5 mps 735 mmHg 90%
    05:00 +7°C° 0 mm 5 mps 735 mmHg 90%
    06:00 +6°C° 0 mm 5 mps 735 mmHg 91%
    07:00 +8°C° 0 mm 6 mps 735 mmHg 86%
    08:00 +9°C° 0 mm 6 mps 735 mmHg 81%
    09:00 +10°C° 0 mm 7 mps 735 mmHg 76%
    10:00 +11°C° 0.1 mm 7 mps 735 mmHg 70%
    11:00 +12°C° 0.1 mm 7 mps 735 mmHg 64%
    12:00 +13°C° 0.1 mm 8 mps 735 mmHg 58%
    13:00 +13°C° 0 mm 8 mps 735 mmHg 57%
    14:00 +14°C° 0 mm 7 mps 735 mmHg 56%
    15:00 +14°C° 0 mm 7 mps 735 mmHg 55%
    16:00 +13°C° 0 mm 6 mps 735 mmHg 59%
    17:00 +11°C° 0 mm 6 mps 735 mmHg 63%
    18:00 +10°C° 0 mm 5 mps 735 mmHg 67%
    19:00 +10°C° 0 mm 4 mps 735 mmHg 68%
    20:00 +8°C° 0 mm 4 mps 735 mmHg 69%
    21:00 +8°C° 0 mm 4 mps 735 mmHg 70%
    22:00 +7°C° 0 mm 4 mps 735 mmHg 72%
    23:00 +7°C° 0 mm 4 mps 735 mmHg 74%

    18 September, Wednesday

    Time Temperature Precipitation Wind Pressure Humidity
    00:00 +7°C° 0 mm 4 mps 735 mmHg 76%
    01:00 +7°C° 0 mm 3 mps 735 mmHg 77%
    02:00 +7°C° 0 mm 3 mps 735 mmHg 78%
    03:00 +7°C° 0 mm 3 mps 735 mmHg 80%
    04:00 +7°C° 0 mm 3 mps 734 mmHg 79%
    05:00 +7°C° 0 mm 3 mps 734 mmHg 79%
    06:00 +8°C° 0 mm 3 mps 734 mmHg 79%
    07:00 +7°C° 0.3 mm 4 mps 734 mmHg 79%
    08:00 +8°C° 0.3 mm 4 mps 734 mmHg 80%
    09:00 +10°C° 0.3 mm 4 mps 733 mmHg 80%
    10:00 +9°C° 0.3 mm 5 mps 733 mmHg 77%
    11:00 +9°C° 0.3 mm 5 mps 733 mmHg 74%
    12:00 +10°C° 0.3 mm 5 mps 733 mmHg 72%
    13:00 +11°C° 0.4 mm 6 mps 733 mmHg 68%
    14:00 +11°C° 0.4 mm 6 mps 733 mmHg 64%
    15:00 +13°C° 0.4 mm 6 mps 732 mmHg 60%
    16:00 +11°C° 0.3 mm 6 mps 732 mmHg 66%
    17:00 +10°C° 0.3 mm 5 mps 732 mmHg 72%
    18:00 +9°C° 0.3 mm 5 mps 732 mmHg 78%
    19:00 +8°C° 0.1 mm 5 mps 732 mmHg 80%
    20:00 +7°C° 0.1 mm 5 mps 733 mmHg 83%
    21:00 +7°C° 0.1 mm 5 mps 733 mmHg 86%
    22:00 +6°C° 0.8 mm 5 mps 733 mmHg 87%
    23:00 +6°C° 0.8 mm 5 mps 733 mmHg 89%

    19 September, Thursday

    Time Temperature Precipitation Wind Pressure Humidity
    00:00 +5°C° 0.8 mm 6 mps 734 mmHg 91%
    01:00 +6°C° 0.3 mm 5 mps 734 mmHg 91%
    02:00 +6°C° 0.3 mm 5 mps 735 mmHg 91%
    03:00 +6°C° 0.3 mm 5 mps 735 mmHg 91%
    04:00 +6°C° 0 mm 5 mps 736 mmHg 90%
    05:00 +5°C° 0 mm 6 mps 736 mmHg 89%
    06:00 +5°C° 0 mm 6 mps 737 mmHg 89%
    07:00 +5°C° 0 mm 6 mps 738 mmHg 88%
    08:00 +5°C° 0 mm 6 mps 739 mmHg 87%
    09:00 +5°C° 0 mm 6 mps 740 mmHg 86%
    10:00 +7°C° 0 mm 6 mps 740 mmHg 83%
    11:00 +8°C° 0 mm 6 mps 741 mmHg 79%
    12:00 +8°C° 0 mm 6 mps 742 mmHg 76%
    13:00 +9°C° 0.1 mm 6 mps 742 mmHg 73%
    14:00 +9°C° 0.1 mm 5 mps 743 mmHg 70%
    15:00 +10°C° 0.1 mm 5 mps 743 mmHg 67%
    16:00 +10°C° 0.3 mm 4 mps 743 mmHg 72%
    17:00 +8°C° 0.3 mm 4 mps 743 mmHg 77%
    18:00 +8°C° 0.3 mm 3 mps 743 mmHg 82%
    19:00 +8°C° 0.1 mm 3 mps 744 mmHg 84%
    20:00 +7°C° 0.1 mm 3 mps 744 mmHg 85%
    21:00 +7°C° 0.1 mm 3 mps 744 mmHg 87%
    22:00 +7°C° 0 mm 3 mps 744 mmHg 88%
    23:00 +6°C° 0 mm 2 mps 744 mmHg 89%

    20 September, Friday

    Time Temperature Precipitation Wind Pressure Humidity
    00:00 +6°C° 0 mm 2 mps 744 mmHg 90%
    01:00 +6°C° 0 mm 2 mps 743 mmHg 90%
    02:00 +5°C° 0 mm 2 mps 743 mmHg 91%
    03:00 +5°C° 0 mm 2 mps 743 mmHg 91%
    04:00 +5°C° 0 mm 2 mps 743 mmHg 92%
    05:00 +5°C° 0 mm 2 mps 742 mmHg 92%
    06:00 +5°C° 0 mm 2 mps 742 mmHg 93%
    07:00 +7°C° 0.1 mm 3 mps 742 mmHg 90%
    08:00 +8°C° 0.1 mm 3 mps 742 mmHg 87%
    09:00 +9°C° 0.1 mm 3 mps 743 mmHg 84%
    10:00 +8°C° 0.2 mm 4 mps 743 mmHg 82%
    11:00 +8°C° 0.2 mm 4 mps 743 mmHg 79%
    12:00 +9°C° 0.2 mm 5 mps 743 mmHg 77%
    13:00 +8°C° 0.1 mm 5 mps 743 mmHg 74%
    14:00 +8°C° 0.1 mm 5 mps 744 mmHg 72%
    15:00 +8°C° 0.1 mm 5 mps 744 mmHg 69%
    16:00 +7°C° 0 mm 4 mps 744 mmHg 72%
    17:00 +7°C° 0 mm 3 mps 744 mmHg 76%
    18:00 +6°C° 0 mm 2 mps 745 mmHg 80%
    19:00 +6°C° 0 mm 2 mps 745 mmHg 80%
    20:00 +5°C° 0 mm 2 mps 746 mmHg 81%
    21:00 +4°C° 0 mm 2 mps 746 mmHg 82%
    22:00 +4°C° 0 mm 2 mps 746 mmHg 81%
    23:00 +3°C° 0 mm 2 mps 746 mmHg 79%
    Show more